TimeCST,TemperatureF,Dew PointF,Humidity,Sea Level PressureIn,VisibilityMPH,Wind Direction,Wind SpeedMPH,Gust SpeedMPH,PrecipitationIn,Events,Conditions,WindDirDegrees,DateUTC
12:54 AM,35.1,28.9,78,30.33,10.0,West,5.8,-,N/A,,Clear,260,2013-11-08 06:54:00
1:54 AM,36.0,28.9,76,30.33,10.0,West,4.6,-,N/A,,Clear,260,2013-11-08 07:54:00
2:54 AM,34.0,28.0,79,30.34,10.0,WNW,5.8,-,N/A,,Clear,290,2013-11-08 08:54:00
3:54 AM,34.0,28.0,79,30.35,10.0,West,5.8,-,N/A,,Clear,270,2013-11-08 09:54:00
4:54 AM,32.0,27.0,82,30.36,10.0,Calm,Calm,-,N/A,,Clear,0,2013-11-08 10:54:00
5:54 AM,30.0,26.1,85,30.36,10.0,Calm,Calm,-,N/A,,Clear,0,2013-11-08 11:54:00
6:54 AM,28.9,26.1,89,30.38,10.0,Calm,Calm,-,N/A,,Clear,0,2013-11-08 12:54:00
7:54 AM,34.0,30.0,85,30.38,10.0,Calm,Calm,-,N/A,,Clear,0,2013-11-08 13:54:00
8:54 AM,42.1,30.9,65,30.38,10.0,Calm,Calm,-,N/A,,Clear,0,2013-11-08 14:54:00
9:54 AM,45.0,30.9,58,30.38,10.0,South,5.8,-,N/A,,Clear,180,2013-11-08 15:54:00
10:54 AM,48.0,30.9,52,30.35,10.0,SSW,5.8,-,N/A,,Clear,200,2013-11-08 16:54:00
11:54 AM,48.9,28.9,46,30.32,10.0,South,9.2,-,N/A,,Clear,180,2013-11-08 17:54:00
12:54 PM,51.1,28.9,43,30.27,10.0,South,12.7,-,N/A,,Clear,180,2013-11-08 18:54:00
1:54 PM,51.1,28.9,43,30.25,10.0,South,10.4,-,N/A,,Clear,170,2013-11-08 19:54:00
2:54 PM,52.0,28.0,40,30.23,10.0,South,12.7,-,N/A,,Clear,170,2013-11-08 20:54:00
3:54 PM,51.1,28.9,43,30.20,10.0,South,10.4,-,N/A,,Clear,170,2013-11-08 21:54:00
4:54 PM,48.9,30.0,48,30.17,10.0,SSE,11.5,-,N/A,,Clear,160,2013-11-08 22:54:00
5:54 PM,46.9,30.0,52,30.16,10.0,SSE,13.8,-,N/A,,Clear,160,2013-11-08 23:54:00
6:54 PM,46.0,30.9,56,30.15,10.0,SSE,13.8,-,N/A,,Clear,160,2013-11-09 00:54:00
7:54 PM,46.0,30.0,54,30.14,10.0,South,16.1,-,N/A,,Clear,170,2013-11-09 01:54:00
8:54 PM,45.0,30.0,56,30.11,10.0,South,18.4,25.3,N/A,,Clear,170,2013-11-09 02:54:00
9:54 PM,45.0,30.0,56,30.10,10.0,South,16.1,-,N/A,,Clear,180,2013-11-09 03:54:00
10:54 PM,46.0,30.9,56,30.09,10.0,South,18.4,26.5,N/A,,Mostly Cloudy,190,2013-11-09 04:54:00
11:54 PM,46.0,30.9,56,30.09,10.0,South,17.3,-,N/A,,Clear,190,2013-11-09 05:54:00